Regional Weather Roundup
Issued by NWS Jackson, KY

Home | Current Version | Previous Version | Graphics & Text | Print | Product List | Glossary On
Versions: 1 2 3 4 5 6 7 8 9 10 11 12 13 14 15 16 17 18 19 20 21 22 23 24 25 26 27
000
ASUS43 KJKL 231210
RWRJKL

EAST KENTUCKY HOURLY WEATHER ROUNDUP
NATIONAL WEATHER SERVICE JACKSON KY
800 AM EDT MON APR 23 2018

NOTE: "FAIR" INDICATES FEW OR NO CLOUDS BELOW 12,000 FEET WITH
NO SIGNIFICANT WEATHER AND/OR OBSTRUCTIONS TO VISIBILITY.

* THESE REPORTS ARE NOT UNDER NWS QUALITY CONTROL AND MAY NOT
  REPORT WEATHER SUCH AS PRECIPITATION AND FOG.

KYZ079-080-083-085-087-088-110-112-115-119-120-231300
...EASTERN KENTUCKY...

CITY           SKY/WX    TMP DP  RH WIND       PRES   REMARKS
JACKSON        LGT RAIN  55  50  83 VRB5      30.10R
6HR MIN TEMP:  55; 6HR MAX TEMP:  61; 6HR PCP:  0.05;

LONDON         RAIN      54  52  93 E5        30.05R
6HR MIN TEMP:  54; 6HR MAX TEMP:  57; 6HR PCP:  0.22;

SOMERSET*      RAIN      52  52 100 SE5       30.05R
MONTICELLO*    LGT RAIN  55  52  89 VRB6      30.05R
6HR MIN TEMP:  55; 6HR MAX TEMP:  56;

WILLIAMSBURG*  PTSUNNY   54  54 100 E5        30.04S
MIDDLESBORO*   RAIN      54  52  94 S3        30.09R
6HR MIN TEMP:  54; 6HR MAX TEMP:  58; 6HR PCP:  0.34;

HARLAN APT*    CLOUDY    53  51  91 SE8G18    30.08S
PIKE CO APT*   DRIZZLE   59  47  64 SE12G24   30.12S
BIG SANDY APT* CLOUDY    61  46  58 SE6       30.13R
6HR MIN TEMP:  58; 6HR MAX TEMP:  61;

MOREHEAD APT*  LGT RAIN  57  43  58 E7        30.12R
ASHLAND*         N/A     59  44  57 E10       30.14R
$$

KYZ035-036-041-042-044-050-067-078-099-231300
...CENTRAL KENTUCKY...

CITY           SKY/WX    TMP DP  RH WIND       PRES   REMARKS
MT STERLING*   DRIZZLE   54  48  82 E6        30.12R
FLEMING/MASON* CLOUDY    55  43  62 E7        30.12R
DANVILLE*      RAIN      52  50  93 CALM      30.06S
LEXINGTON      RAIN      54  49  83 E8        30.08R
6HR MIN TEMP:  52; 6HR MAX TEMP:  61; 6HR PCP:  0.21;

FRANKFORT      RAIN      52  47  83 E8        30.07R
6HR MIN TEMP:  51; 6HR MAX TEMP:  58; 6HR PCP:  0.25;

LOUISVILLE     LGT RAIN  54  51  90 E13       30.05R
6HR MIN TEMP:  52; 6HR MAX TEMP:  62; 6HR PCP:  0.44;

GLASGOW*       CLOUDY    55  52  88 E6        29.98R
BOWLING GREEN  PTSUNNY   57  55  93 E9        29.96R
6HR MIN TEMP:  56; 6HR MAX TEMP:  58; 6HR PCP:  0.25;

$$

KYZ091>093-OHZ055-061-077-WVZ005-015-034-035-042-231300
...SOUTHERN OHIO/WEST VIRGINIA...

CITY           SKY/WX    TMP DP  RH WIND       PRES   REMARKS
COVINGTON      CLOUDY    55  37  50 E6        30.10R
COLUMBUS       PTSUNNY   55  38  52 E13       30.19R
DAYTON         PTSUNNY   53  37  54 E12       30.16R
WILMINGTON       N/A     52  39  61 E9        30.14R
HUNTINGTON       N/A     57  43  59 E7        30.13R
CHARLESTON     PTSUNNY   60  44  55 SE13G22   30.17S
PINEVILLE*     CLOUDY    59  44  59 MISG      30.25R
BECKLEY          N/A     52  41  66 SE15G32   30.23R
BLUEFIELD      CLOUDY    50  41  71 SE13G24   30.24R
LOGAN CO APT*  PTSUNNY   59  45  58 SE14      30.17R
$$

VAZ002-007-008-TNZ017-027-036-066-071-231300
...SOUTHWEST VIRGINIA/EAST TENNESSEE...

CITY           SKY/WX    TMP DP  RH WIND       PRES   REMARKS
WISE*          DRIZZLE   52  48  87 SE8G18    30.15S
JONESVILLE*    LGT RAIN  54  52  94 E9        30.12F
ABINGDON*      DRIZZLE   55  48  77 SE14G21   30.18F
BRISTOL        LGT RAIN  55  50  83 E7        30.14S
MORRISTOWN*    CLOUDY    55  52  88 E10G20    30.06R
SEVIERVILLE*   PTSUNNY   61  48  63 VRB6G15   30.00R
KNOXVILLE      LGT RAIN  55  53  93 NW5       30.01R
LAFOLLETTE*    PTSUNNY   54  52  94 NE6       30.09R
OAK RIDGE      RAIN      54  54 100 CALM      30.06R FOG
CROSSVILLE     LGT RAIN  52  50  93 E8G18     30.02R FOG
NASHVILLE      CLOUDY    59  57  93 SE9       29.92R
$$

...KEY TO REMARKS...
VSB - VISIBILITY IN MILES
WCI - WIND CHILL INDEX
HX  - HEAT INDEX

$$




USA.gov is the U.S. government's official web portal to all federal, state and local government web resources and services.